Location: ???????
(38.3360°N, 23.6977°E)
Time: 22:57:26
(UTC+00:00)

MOS 1 Rocket - Pass Details

Date: 17 November 2025
Orbit: 610 x 813 km, 97.4° (Epoch: 13 December)

Event Time Altitude Azimuth Distance (km) Brightness Sun altitude
Rises 16:49:52 0° 180° (S) 2,858 6.6 -19.3°
Reaches altitude 10° 16:52:04 10° 186° (S) 1,964 5.8 -19.8°
Maximum altitude 16:56:11 49° 261° (W) 807 4.0 -20.6°
Drops below altitude 10° 17:00:29 10° 337° (NNW) 2,042 5.9 -21.4°
Sets 17:02:49 0° 343° (NNW) 2,984 6.7 -21.8°
